RYR66UL EGHH-LFBE

Flight info

Callsign RYR66UL
Flight time 1h 11m
Altitude 33000
Route THRED DCT ORTAC DCT REN DCT NTS DCT CNA R17 VELIN
Aircraft B38M/M-SDE1FGHILORVWXY/HB1

Departure

Time 2026-05-01 10:43
Airport Bournemouth Airport (EGHH)

Arrival

Time 2026-05-01 11:54
Airport Bergerac Dordogne-Périgord airport (LFBE)
Time Latitude Longitude Altitude Speed Heading
2026-05-01 10:21 50.77885 -1.83384 43 ft 0 kts 87°
2026-05-01 10:35 50.77884 -1.83395 43 ft 4 kts 86°
2026-05-01 10:35 50.77882 -1.83437 43 ft 4 kts 79°
2026-05-01 10:35 50.77873 -1.83472 42 ft 4 kts 36°
2026-05-01 10:35 50.77863 -1.83478 40 ft 0 kts 351°
2026-05-01 10:40 50.77869 -1.83480 41 ft 4 kts 351°
2026-05-01 10:40 50.77923 -1.83492 44 ft 10 kts 359°
2026-05-01 10:40 50.77986 -1.83451 45 ft 10 kts 46°
2026-05-01 10:41 50.78036 -1.83314 45 ft 20 kts 65°
2026-05-01 10:41 50.78091 -1.83169 45 ft 8 kts 56°
2026-05-01 10:41 50.78119 -1.82971 43 ft 14 kts 92°
2026-05-01 10:42 50.78157 -1.82785 41 ft 22 kts 51°
2026-05-01 10:42 50.78240 -1.82736 46 ft 5 kts 323°
2026-05-01 10:42 50.78249 -1.82771 46 ft 4 kts 279°
2026-05-01 10:42 50.78245 -1.82806 46 ft 7 kts 266°
2026-05-01 10:43 50.78209 -1.83033 46 ft 50 kts 255°
2026-05-01 10:43 50.78049 -1.84002 47 ft 129 kts 255°
2026-05-01 10:43 50.77768 -1.85681 232 ft 174 kts 253°
2026-05-01 10:43 50.77478 -1.87619 944 ft 186 kts 256°
2026-05-01 10:44 50.77206 -1.89648 1744 ft 194 kts 253°
2026-05-01 10:44 50.76910 -1.91824 2319 ft 209 kts 254°
2026-05-01 10:44 50.76575 -1.94091 2991 ft 223 kts 247°
2026-05-01 10:44 50.75577 -1.95947 3358 ft 229 kts 201°
2026-05-01 10:45 50.74036 -1.96272 4196 ft 223 kts 162°
2026-05-01 10:45 50.72728 -1.95052 5227 ft 224 kts 137°
2026-05-01 10:45 50.71538 -1.93410 6106 ft 233 kts 142°
2026-05-01 10:45 50.70224 -1.91760 6778 ft 250 kts 142°
2026-05-01 10:46 50.68822 -1.90028 7597 ft 257 kts 142°
2026-05-01 10:46 50.67422 -1.88278 8595 ft 260 kts 142°
2026-05-01 10:46 50.65993 -1.86496 9528 ft 264 kts 142°
2026-05-01 10:46 50.64529 -1.84668 10066 ft 270 kts 142°
2026-05-01 10:47 50.63058 -1.82831 10169 ft 270 kts 142°
2026-05-01 10:47 50.61560 -1.80970 10617 ft 280 kts 142°
2026-05-01 10:47 50.59984 -1.79015 11135 ft 296 kts 142°
2026-05-01 10:47 50.58333 -1.76966 11764 ft 306 kts 142°
2026-05-01 10:48 50.56664 -1.74885 12690 ft 307 kts 142°
2026-05-01 10:48 50.54998 -1.72803 13524 ft 312 kts 142°
2026-05-01 10:48 50.53289 -1.70668 14340 ft 315 kts 142°
2026-05-01 10:48 50.51449 -1.68695 15116 ft 319 kts 155°
2026-05-01 10:49 50.49290 -1.67894 15897 ft 324 kts 176°
2026-05-01 10:49 50.47041 -1.68441 16646 ft 334 kts 196°
2026-05-01 10:49 50.44886 -1.69882 17415 ft 339 kts 199°
2026-05-01 10:49 50.42701 -1.71356 18138 ft 343 kts 199°
2026-05-01 10:50 50.40528 -1.72836 18801 ft 347 kts 199°
2026-05-01 10:50 50.38304 -1.74358 19413 ft 350 kts 199°
2026-05-01 10:50 50.36063 -1.75894 20023 ft 353 kts 199°
2026-05-01 10:50 50.33802 -1.77444 20619 ft 356 kts 199°
2026-05-01 10:51 50.31518 -1.79009 21202 ft 360 kts 199°
2026-05-01 10:51 50.29211 -1.80589 21799 ft 363 kts 199°
2026-05-01 10:51 50.26888 -1.82178 22376 ft 366 kts 199°
2026-05-01 10:51 50.24541 -1.83781 22944 ft 369 kts 199°
2026-05-01 10:52 50.22178 -1.85394 23512 ft 372 kts 199°
2026-05-01 10:52 50.19794 -1.87020 24007 ft 376 kts 199°
2026-05-01 10:52 50.17387 -1.88660 24453 ft 379 kts 199°
2026-05-01 10:52 50.14963 -1.90309 24912 ft 382 kts 199°
2026-05-01 10:53 50.12516 -1.91971 25349 ft 385 kts 199°
2026-05-01 10:53 50.10056 -1.93641 25786 ft 388 kts 200°
2026-05-01 10:53 50.07569 -1.95327 26212 ft 391 kts 200°
2026-05-01 10:53 50.05064 -1.97023 26635 ft 394 kts 200°
2026-05-01 10:54 50.03403 -1.98147 26915 ft 395 kts 200°
2026-05-01 10:54 50.00830 -1.99674 27299 ft 395 kts 190°
2026-05-01 10:54 49.98111 -2.00017 27691 ft 393 kts 174°
2026-05-01 10:54 49.95369 -1.99718 28024 ft 397 kts 174°
2026-05-01 10:55 49.92602 -1.99397 28409 ft 400 kts 174°
2026-05-01 10:55 49.89821 -1.99043 28792 ft 403 kts 174°
2026-05-01 10:55 49.87017 -1.98666 29158 ft 406 kts 174°
2026-05-01 10:55 49.84197 -1.98275 29529 ft 409 kts 174°
2026-05-01 10:56 49.81357 -1.97877 29891 ft 411 kts 174°
2026-05-01 10:56 49.78498 -1.97475 30244 ft 414 kts 174°
2026-05-01 10:56 49.75616 -1.97070 30552 ft 417 kts 174°
2026-05-01 10:56 49.72719 -1.96663 30873 ft 418 kts 174°
2026-05-01 10:57 49.69822 -1.96257 31269 ft 418 kts 174°
2026-05-01 10:57 49.66930 -1.95852 31688 ft 417 kts 173°
2026-05-01 10:57 49.64042 -1.95448 32124 ft 416 kts 173°
2026-05-01 10:57 49.61170 -1.95047 32544 ft 415 kts 173°
2026-05-01 10:58 49.58295 -1.94646 32975 ft 413 kts 173°
2026-05-01 10:58 49.55430 -1.94246 33229 ft 415 kts 173°
2026-05-01 10:58 49.52534 -1.93843 33230 ft 421 kts 173°
2026-05-01 10:59 49.46655 -1.93026 33224 ft 431 kts 173°
2026-05-01 10:59 49.40683 -1.92199 33227 ft 430 kts 173°
2026-05-01 11:00 49.34722 -1.91375 33224 ft 430 kts 173°
2026-05-01 11:00 49.28765 -1.90553 33222 ft 429 kts 173°
2026-05-01 11:01 49.22811 -1.89734 33223 ft 429 kts 173°
2026-05-01 11:01 49.16864 -1.88917 33221 ft 429 kts 173°
2026-05-01 11:02 49.10921 -1.88103 33226 ft 429 kts 173°
2026-05-01 11:02 49.05008 -1.87296 33231 ft 428 kts 173°
2026-05-01 11:03 48.99075 -1.86487 33234 ft 428 kts 173°
2026-05-01 11:03 48.93149 -1.85682 33234 ft 428 kts 173°
2026-05-01 11:04 48.87225 -1.84877 33232 ft 427 kts 173°
2026-05-01 11:04 48.81306 -1.84077 33228 ft 426 kts 173°
2026-05-01 11:05 48.75392 -1.83279 33223 ft 427 kts 173°
2026-05-01 11:05 48.69475 -1.82482 33219 ft 427 kts 173°
2026-05-01 11:06 48.63556 -1.81687 33214 ft 427 kts 173°
2026-05-01 11:06 48.57639 -1.80893 33217 ft 427 kts 173°
2026-05-01 11:07 48.48762 -1.79707 33216 ft 427 kts 173°
2026-05-01 11:07 48.42838 -1.78917 33209 ft 427 kts 173°
2026-05-01 11:08 48.36954 -1.78135 33210 ft 427 kts 173°
2026-05-01 11:09 48.28067 -1.76957 33210 ft 427 kts 173°
2026-05-01 11:09 48.22136 -1.76173 33213 ft 428 kts 173°
2026-05-01 11:10 48.13235 -1.74999 33209 ft 428 kts 173°
2026-05-01 11:10 48.07302 -1.74214 33219 ft 428 kts 173°
2026-05-01 11:11 48.01379 -1.73356 33211 ft 428 kts 173°
2026-05-01 11:11 47.95442 -1.72502 33206 ft 428 kts 173°
2026-05-01 11:12 47.89543 -1.71658 33194 ft 429 kts 173°
2026-05-01 11:12 47.83571 -1.70804 33206 ft 429 kts 173°
2026-05-01 11:13 47.77657 -1.69961 33207 ft 430 kts 173°
2026-05-01 11:13 47.71701 -1.69115 33205 ft 431 kts 173°
2026-05-01 11:14 47.65727 -1.68267 33219 ft 431 kts 173°
2026-05-01 11:14 47.59742 -1.67420 33200 ft 431 kts 173°
2026-05-01 11:15 47.53748 -1.66573 33207 ft 433 kts 173°
2026-05-01 11:15 47.47752 -1.65728 33206 ft 433 kts 173°
2026-05-01 11:16 47.41745 -1.64883 33207 ft 434 kts 173°
2026-05-01 11:16 47.35731 -1.64040 33208 ft 434 kts 173°
2026-05-01 11:17 47.29748 -1.63203 33211 ft 434 kts 173°
2026-05-01 11:17 47.23719 -1.62361 33210 ft 435 kts 173°
2026-05-01 11:18 47.17700 -1.61462 33207 ft 434 kts 168°
2026-05-01 11:18 47.14861 -1.60042 33209 ft 430 kts 151°
2026-05-01 11:18 47.12288 -1.57790 33207 ft 432 kts 149°
2026-05-01 11:19 47.07116 -1.53264 33214 ft 433 kts 148°
2026-05-01 11:19 47.02000 -1.48721 33209 ft 433 kts 148°
2026-05-01 11:20 46.96815 -1.44113 33208 ft 433 kts 148°
2026-05-01 11:20 46.91635 -1.39518 33195 ft 444 kts 151°
2026-05-01 11:21 46.86278 -1.34779 33200 ft 456 kts 150°
2026-05-01 11:21 46.80842 -1.29981 33218 ft 457 kts 151°
2026-05-01 11:22 46.75402 -1.25190 33211 ft 457 kts 151°
2026-05-01 11:22 46.69956 -1.20406 33207 ft 457 kts 151°
2026-05-01 11:23 46.64508 -1.15631 33208 ft 457 kts 151°
2026-05-01 11:23 46.59058 -1.10865 33202 ft 456 kts 151°
2026-05-01 11:24 46.56365 -1.08515 32972 ft 449 kts 151°
2026-05-01 11:24 46.53670 -1.06166 32588 ft 454 kts 151°
2026-05-01 11:24 46.48232 -1.01433 31518 ft 458 kts 151°
2026-05-01 11:25 46.45497 -0.99058 31019 ft 455 kts 151°
2026-05-01 11:25 46.40053 -0.94336 29970 ft 458 kts 151°
2026-05-01 11:25 46.37314 -0.91965 29417 ft 459 kts 151°
2026-05-01 11:26 46.34568 -0.89591 28916 ft 460 kts 151°
2026-05-01 11:26 46.29070 -0.84846 27949 ft 461 kts 151°
2026-05-01 11:26 46.26313 -0.82470 27463 ft 462 kts 151°
2026-05-01 11:27 46.23549 -0.80092 26970 ft 462 kts 151°
2026-05-01 11:27 46.20783 -0.77714 26489 ft 463 kts 151°
2026-05-01 11:27 46.18010 -0.75334 26013 ft 464 kts 150°
2026-05-01 11:27 46.15240 -0.72959 25533 ft 463 kts 150°
2026-05-01 11:28 46.12480 -0.70595 25061 ft 460 kts 150°
2026-05-01 11:28 46.09736 -0.68248 24594 ft 457 kts 150°
2026-05-01 11:28 46.07007 -0.65916 24129 ft 454 kts 150°
2026-05-01 11:29 46.01613 -0.61315 23118 ft 447 kts 150°
2026-05-01 11:29 45.98947 -0.59045 22651 ft 444 kts 150°
2026-05-01 11:29 45.93660 -0.54551 21764 ft 438 kts 150°
2026-05-01 11:30 45.91051 -0.52337 21321 ft 430 kts 150°
2026-05-01 11:30 45.88528 -0.50198 20672 ft 427 kts 150°
2026-05-01 11:30 45.85980 -0.48040 20086 ft 424 kts 150°
2026-05-01 11:30 45.83445 -0.45895 19535 ft 420 kts 150°
2026-05-01 11:31 45.80947 -0.43785 19084 ft 414 kts 150°
2026-05-01 11:31 45.78489 -0.41710 18664 ft 407 kts 150°
2026-05-01 11:31 45.76065 -0.39665 18214 ft 401 kts 150°
2026-05-01 11:31 45.73649 -0.37628 17778 ft 401 kts 150°
2026-05-01 11:32 45.71250 -0.35609 17362 ft 398 kts 150°
2026-05-01 11:32 45.68882 -0.33617 16963 ft 391 kts 151°
2026-05-01 11:32 45.66548 -0.31656 16558 ft 388 kts 151°
2026-05-01 11:32 45.64143 -0.29951 16104 ft 383 kts 156°
2026-05-01 11:33 45.61740 -0.28323 15739 ft 381 kts 156°
2026-05-01 11:33 45.59356 -0.26689 15368 ft 379 kts 156°
2026-05-01 11:33 45.57014 -0.25074 14977 ft 377 kts 156°
2026-05-01 11:33 45.54664 -0.23447 14595 ft 374 kts 156°
2026-05-01 11:34 45.52332 -0.21834 14214 ft 372 kts 156°
2026-05-01 11:34 45.50011 -0.20229 13799 ft 369 kts 156°
2026-05-01 11:34 45.47706 -0.18636 13390 ft 366 kts 156°
2026-05-01 11:34 45.45423 -0.17060 13005 ft 364 kts 156°
2026-05-01 11:35 45.43151 -0.15493 12625 ft 362 kts 156°
2026-05-01 11:35 45.40893 -0.13937 12258 ft 360 kts 155°
2026-05-01 11:35 45.38671 -0.12407 11883 ft 348 kts 156°
2026-05-01 11:35 45.36534 -0.10937 11539 ft 332 kts 155°
2026-05-01 11:36 45.34505 -0.09542 11208 ft 317 kts 155°
2026-05-01 11:36 45.32565 -0.08210 10898 ft 304 kts 156°
2026-05-01 11:36 45.30681 -0.06916 10574 ft 298 kts 156°
2026-05-01 11:36 45.28818 -0.05639 10255 ft 297 kts 156°
2026-05-01 11:37 45.26969 -0.04373 10034 ft 292 kts 156°
2026-05-01 11:37 45.25165 -0.03134 9707 ft 285 kts 155°
2026-05-01 11:37 45.23400 -0.01912 9445 ft 281 kts 155°
2026-05-01 11:37 45.21643 -0.00698 9195 ft 280 kts 156°
2026-05-01 11:38 45.19894 0.00510 8903 ft 279 kts 156°
2026-05-01 11:38 45.18177 0.01695 8620 ft 278 kts 156°
2026-05-01 11:38 45.16441 0.02891 8316 ft 277 kts 156°
2026-05-01 11:38 45.14716 0.04081 8016 ft 275 kts 155°
2026-05-01 11:39 45.13006 0.05258 7715 ft 269 kts 155°
2026-05-01 11:39 45.11343 0.06402 7414 ft 264 kts 156°
2026-05-01 11:39 45.09691 0.07538 7132 ft 264 kts 155°
2026-05-01 11:39 45.08041 0.08672 6841 ft 263 kts 155°
2026-05-01 11:40 45.06391 0.09805 6538 ft 263 kts 155°
2026-05-01 11:40 45.04747 0.10933 6230 ft 262 kts 155°
2026-05-01 11:40 45.03665 0.11675 6036 ft 261 kts 155°
2026-05-01 11:40 45.02035 0.12793 5738 ft 260 kts 155°
2026-05-01 11:41 44.99883 0.14267 5398 ft 256 kts 155°
2026-05-01 11:41 44.98363 0.15469 5236 ft 247 kts 140°
2026-05-01 11:41 44.97449 0.17072 5132 ft 240 kts 123°
2026-05-01 11:41 44.96573 0.19036 5006 ft 233 kts 123°
2026-05-01 11:42 44.95724 0.20956 4872 ft 229 kts 123°
2026-05-01 11:42 44.95160 0.22242 4786 ft 227 kts 123°
2026-05-01 11:42 44.94332 0.24140 4639 ft 226 kts 123°
2026-05-01 11:42 44.93514 0.26028 4511 ft 225 kts 122°
2026-05-01 11:43 44.92679 0.27849 4318 ft 222 kts 131°
2026-05-01 11:43 44.91374 0.28932 3913 ft 222 kts 168°
2026-05-01 11:43 44.89833 0.28911 3555 ft 221 kts 182°
2026-05-01 11:44 44.86783 0.28571 2784 ft 219 kts 182°
2026-05-01 11:44 44.85299 0.28514 2558 ft 202 kts 167°
2026-05-01 11:44 44.84176 0.29415 2529 ft 180 kts 131°
2026-05-01 11:44 44.83680 0.30996 2556 ft 178 kts 103°
2026-05-01 11:45 44.83539 0.32725 2535 ft 177 kts 99°
2026-05-01 11:45 44.83425 0.34447 2538 ft 176 kts 99°
2026-05-01 11:45 44.83320 0.36060 2536 ft 159 kts 101°
2026-05-01 11:45 44.83215 0.37610 2360 ft 158 kts 98°
2026-05-01 11:46 44.83131 0.39145 2073 ft 157 kts 98°
2026-05-01 11:46 44.83054 0.40626 1787 ft 144 kts 97°
2026-05-01 11:46 44.82982 0.41982 1535 ft 136 kts 98°
2026-05-01 11:46 44.82917 0.43334 1324 ft 146 kts 96°
2026-05-01 11:47 44.82836 0.44783 1172 ft 148 kts 98°
2026-05-01 11:47 44.82773 0.46207 900 ft 142 kts 99°
2026-05-01 11:47 44.82684 0.47559 669 ft 136 kts 97°
2026-05-01 11:47 44.82618 0.48898 435 ft 139 kts 99°
2026-05-01 11:48 44.82543 0.50308 266 ft 147 kts 98°
2026-05-01 11:48 44.82466 0.51722 180 ft 134 kts 98°
2026-05-01 11:48 44.82401 0.52986 367 ft 142 kts 97°
2026-05-01 11:48 44.82296 0.54543 764 ft 179 kts 99°
2026-05-01 11:49 44.82174 0.56392 1505 ft 201 kts 99°
2026-05-01 11:49 44.81693 0.58172 2726 ft 189 kts 131°
2026-05-01 11:49 44.80574 0.59107 3633 ft 196 kts 170°
2026-05-01 11:49 44.79223 0.58695 4345 ft 213 kts 210°
2026-05-01 11:50 44.78156 0.57029 4313 ft 251 kts 239°
2026-05-01 11:50 44.77625 0.54551 3624 ft 272 kts 262°
2026-05-01 11:50 44.77574 0.51914 3055 ft 273 kts 271°
2026-05-01 11:50 44.77684 0.49303 2841 ft 259 kts 272°
2026-05-01 11:51 44.77823 0.46861 2745 ft 243 kts 272°
2026-05-01 11:51 44.77980 0.44564 2659 ft 229 kts 271°
2026-05-01 11:51 44.78155 0.42393 2595 ft 216 kts 281°
2026-05-01 11:51 44.78843 0.40705 2611 ft 191 kts 319°
2026-05-01 11:52 44.80004 0.39895 2371 ft 183 kts 349°
2026-05-01 11:52 44.81224 0.39936 2137 ft 171 kts 18°
2026-05-01 11:52 44.82185 0.40749 1933 ft 156 kts 48°
2026-05-01 11:52 44.82747 0.42022 1764 ft 158 kts 76°
2026-05-01 11:53 44.82919 0.43579 1446 ft 165 kts 93°
2026-05-01 11:53 44.82808 0.45172 1029 ft 161 kts 97°
2026-05-01 11:53 44.82734 0.46683 764 ft 147 kts 97°
2026-05-01 11:53 44.82662 0.48075 554 ft 147 kts 98°
2026-05-01 11:54 44.82582 0.49537 383 ft 148 kts 98°
2026-05-01 11:54 44.82504 0.51008 203 ft 145 kts 98°
2026-05-01 11:54 44.82435 0.52238 178 ft 86 kts 94°
2026-05-01 11:54 44.82405 0.52757 176 ft 41 kts 95°
2026-05-01 11:55 44.82417 0.53102 176 ft 30 kts 63°
2026-05-01 11:55 44.82386 0.53230 176 ft 6 kts 187°
2026-05-01 11:55 44.82374 0.53181 176 ft 8 kts 268°
2026-05-01 11:55 44.82400 0.53057 175 ft 18 kts 280°
2026-05-01 11:56 44.82406 0.52852 175 ft 23 kts 272°
2026-05-01 11:56 44.82413 0.52623 176 ft 24 kts 274°
2026-05-01 11:56 44.82425 0.52404 178 ft 23 kts 275°
2026-05-01 11:56 44.82438 0.52169 178 ft 25 kts 273°
2026-05-01 11:57 44.82364 0.52047 179 ft 18 kts 181°
2026-05-01 11:57 44.82286 0.51968 179 ft 16 kts 269°
2026-05-01 11:57 44.82295 0.51801 179 ft 18 kts 275°
2026-05-01 11:57 44.82298 0.51738 179 ft 0 kts 273°
2026-05-01 11:58 44.82299 0.51719 179 ft 3 kts 273°
2026-05-01 11:58 44.82299 0.51707 179 ft 0 kts 273°
2026-05-01 11:58 44.82300 0.51689 179 ft 7 kts 273°
2026-05-01 11:59 44.82286 0.51652 179 ft 3 kts 198°
2026-05-01 11:59 44.82272 0.51650 179 ft 1 kts 184°
2026-05-01 11:59 44.82265 0.51643 179 ft 2 kts 226°
2026-05-01 12:00 44.82273 0.51611 179 ft 0 kts 310°
2026-05-01 12:00 44.82274 0.51610 179 ft 0 kts 311°